Location: Izdebno
(52.6670°N, 16.2170°E)
Time: 04:13:38
(UTC+02:00)

Transit 4A - Pass Details

Date: 27 February 2024
Orbit: 871 x 972 km, 66.8° (Epoch: 22 April)

Event Time Altitude Azimuth Distance (km) Brightness Sun altitude
Rises 03:27:00 0° 262° (W) 3,579 - -30.4°
Reaches altitude 10° 03:29:53 10° 273° (W) 2,621 - -30.0°
Exits shadow 03:35:10 30° 333° (NNW) 1,569 9.0 -29.3°
Maximum altitude 03:35:10 30° 333° (NNW) 1,569 9.0 -29.3°
Drops below altitude 10° 03:40:22 10° 34° (NE) 2,569 10.9 -28.6°
Sets 03:43:11 0° 46° (NE) 3,498 12.0 -28.2°
